GW0756 Weather Reports


time (UTC)temp
C
wind
direction
speed
KPH
gust
KPH
rain 1hr
cm
rain 24hr
cm
rain mn
cm
humidity
%
barometer
mb
20260510204513 18 250 1.6 1.6 0.00 0.00 0.00 42 1022.7
20260510204009 18 250 0.0 0.0 0.00 0.00 0.00 44 1022.8
20260510203507 18 250 0.0 1.6 0.00 0.00 0.00 44 1022.9
20260510203002 18 250 1.6 3.2 0.00 0.00 0.00 47 1022.8
20260510202457 18 250 1.6 3.2 0.00 0.00 0.00 44 1022.9
20260510201953 18 250 0.0 0.0 0.00 0.00 0.00 39 1022.9
20260510201450 18 250 1.6 4.8 0.00 0.00 0.00 41 1022.9
20260510200947 18 250 0.0 0.0 0.00 0.00 0.00 43 1022.8
20260510200442 18 250 3.2 4.8 0.00 0.00 0.00 39 1023.2
20260510195936 18 250 1.6 3.2 0.00 0.00 0.00 39 1023.0
20260510195433 18 250 0.0 1.6 0.00 0.00 0.00 47 1023.1
20260510194928 18 250 0.0 0.0 0.00 0.00 0.00 43 1023.3
20260510194425 18 250 0.0 0.0 0.00 0.00 0.00 43 1022.8
20260510193920 18 250 1.6 4.8 0.00 0.00 0.00 41 1023.1
20260510193416 18 250 1.6 3.2 0.00 0.00 0.00 42 1022.9
20260510192912 18 250 1.6 4.8 0.00 0.00 0.00 47 1022.9
20260510192407 18 250 0.0 1.6 0.00 0.00 0.00 47 1022.9
20260510191903 18 250 3.2 4.8 0.00 0.00 0.00 46 1023.0
20260510191358 18 250 0.0 0.0 0.00 0.00 0.00 48 1022.7
20260510190856 18 250 0.0 0.0 0.00 0.00 0.00 49 1023.1
20260510190354 18 250 0.0 1.6 0.00 0.00 0.00 44 1023.0
20260510185850 18 250 1.6 1.6 0.00 0.00 0.00 48 1023.2
20260510185348 18 250 0.0 0.0 0.00 0.00 0.00 49 1023.2
20260510184845 17 250 0.0 0.0 0.00 0.00 0.00 46 1022.9
20260510184342 18 250 1.6 8.0 0.00 0.00 0.00 48 1022.9
20260510183841 18 250 3.2 4.8 0.00 0.00 0.00 43 1022.8
20260510183337 18 250 1.6 3.2 0.00 0.00 0.00 42 1023.2
20260510182833 18 250 0.0 3.2 0.00 0.00 0.00 43 1023.1
20260510182330 18 250 0.0 0.0 0.00 0.00 0.00 48 1023.2
20260510181825 18 250 1.6 3.2 0.00 0.00 0.00 45 1023.0
20260510181323 18 250 0.0 0.0 0.00 0.00 0.00 48 1023.2
20260510180819 18 250 0.0 3.2 0.00 0.00 0.00 45 1023.1
20260510180317 18 250 0.0 0.0 0.00 0.00 0.00 42 1023.1
20260510175813 18 250 1.6 1.6 0.00 0.00 0.00 42 1023.3
20260510175309 18 250 0.0 0.0 0.00 0.00 0.00 45 1023.1
20260510174806 17 250 0.0 0.0 0.00 0.00 0.00 46 1023.1
20260510174303 17 250 3.2 3.2 0.00 0.00 0.00 42 1023.1
20260510173800 17 250 0.0 1.6 0.00 0.00 0.00 44 1023.1
20260510173255 17 250 0.0 0.0 0.00 0.00 0.00 47 1023.1
20260510172751 17 250 1.6 1.6 0.00 0.00 0.00 43 1023.0
20260510172247 17 250 1.6 3.2 0.00 0.00 0.00 44 1022.9
20260510171744 17 250 0.0 0.0 0.00 0.00 0.00 47 1023.0
20260510171241 17 250 0.0 1.6 0.00 0.00 0.00 46 1023.1
20260510170739 17 250 0.0 0.0 0.00 0.00 0.00 40 1023.1
20260510170234 18 250 0.0 0.0 0.00 0.00 0.00 41 1023.2
20260510165730 18 250 3.2 3.2 0.00 0.00 0.00 40 1023.1
20260510165226 18 250 0.0 0.0 0.00 0.00 0.00 43 1023.2
20260510164724 18 250 0.0 0.0 0.00 0.00 0.00 40 1023.2
20260510164221 18 250 4.8 4.8 0.00 0.00 0.00 42 1023.0
20260510163716 17 250 6.4 12.9 0.00 0.00 0.00 42 1023.1
20260510163212 17 250 0.0 0.0 0.00 0.00 0.00 48 1023.0
20260510162711 17 250 0.0 0.0 0.00 0.00 0.00 44 1023.1
20260510162209 17 250 3.2 4.8 0.00 0.00 0.00 40 1022.9
20260510161705 17 250 0.0 1.6 0.00 0.00 0.00 46 1022.5
20260510161201 17 250 3.2 4.8 0.00 0.00 0.00 44 1022.5
20260510160658 17 250 1.6 4.8 0.00 0.00 0.00 43 1022.4
20260510160154 16 250 1.6 1.6 0.00 0.00 0.00 46 1022.3
20260510155650 16 250 0.0 1.6 0.00 0.00 0.00 46 1022.5
20260510155145 16 250 1.6 1.6 0.00 0.00 0.00 45 1022.5
20260510154641 16 250 0.0 0.0 0.00 0.00 0.00 46 1022.4
20260510154137 16 250 0.0 1.6 0.00 0.00 0.00 49 1022.4
20260510153638 16 250 1.6 3.2 0.00 0.00 0.00 43 1022.1
20260510153135 16 250 3.2 4.8 0.00 0.00 0.00 41 1022.4
20260510152631 16 250 0.0 1.6 0.00 0.00 0.00 47 1022.2
20260510152127 15 250 1.6 1.6 0.00 0.00 0.00 45 1022.2
20260510151624 16 250 1.6 3.2 0.00 0.00 0.00 44 1022.2
20260510151122 16 250 0.0 0.0 0.00 0.00 0.00 47 1021.9
20260510150622 16 250 0.0 0.0 0.00 0.00 0.00 46 1022.0
20260510150118 15 250 0.0 1.6 0.00 0.00 0.00 46 1021.9
20260510145615 15 250 0.0 0.0 0.00 0.00 0.00 47 1022.1
20260510145111 15 250 0.0 0.0 0.00 0.00 0.00 46 1022.2
20260510144607 15 250 0.0 0.0 0.00 0.00 0.00 52 1022.5
20260510144104 15 250 0.0 0.0 0.00 0.00 0.00 51 1022.4
20260510143559 15 250 1.6 3.2 0.00 0.00 0.00 50 1022.4
20260510143056 15 250 0.0 0.0 0.00 0.00 0.00 53 1022.3
20260510142553 15 250 0.0 0.0 0.00 0.00 0.00 48 1022.5
20260510142049 15 250 1.6 3.2 0.00 0.00 0.00 47 1022.3
20260510141546 15 250 0.0 0.0 0.00 0.00 0.00 52 1022.4
20260510141044 14 250 0.0 1.6 0.00 0.00 0.00 49 1022.3
20260510140540 14 250 0.0 0.0 0.00 0.00 0.00 53 1022.6
20260510140039 14 250 0.0 0.0 0.00 0.00 0.00 55 1022.2
20260510135535 15 250 0.0 0.0 0.00 0.00 0.00 50 1022.4
20260510135032 14 250 0.0 0.0 0.00 0.00 0.00 50 1022.5
20260510134529 14 250 0.0 0.0 0.00 0.00 0.00 50 1022.5
20260510134026 14 250 0.0 0.0 0.00 0.00 0.00 52 1022.3
20260510133521 14 250 0.0 1.6 0.00 0.00 0.00 49 1022.0
20260510133018 14 250 0.0 0.0 0.00 0.00 0.00 48 1021.5
20260510132515 15 250 0.0 0.0 0.00 0.00 0.00 49 1021.4
20260510132012 15 250 0.0 0.0 0.00 0.00 0.00 50 1021.3
20260510131509 15 250 0.0 1.6 0.00 0.00 0.00 46 1021.0
20260510131006 14 250 0.0 1.6 0.00 0.00 0.00 50 1021.1
20260510130502 14 250 0.0 0.0 0.00 0.00 0.00 51 1021.0
20260510130000 14 250 0.0 0.0 0.00 0.00 0.00 53 1021.0
20260510125456 14 250 0.0 1.6 0.00 0.00 0.00 52 1020.6
20260510124953 14 250 1.6 3.2 0.00 0.00 0.00 52 1020.5
20260510124449 14 250 1.6 1.6 0.00 0.00 0.00 54 1020.8
20260510123946 14 250 0.0 0.0 0.00 0.00 0.00 56 1020.3
20260510123442 13 250 0.0 0.0 0.00 0.00 0.00 54 1020.6
20260510122938 13 250 1.6 1.6 0.00 0.00 0.00 54 1020.0
20260510122433 13 250 0.0 0.0 0.00 0.00 0.00 56 1019.9
20260510121929 13 250 1.6 3.2 0.00 0.00 0.00 55 1020.1
20260510121427 13 250 0.0 0.0 0.00 0.00 0.00 56 1020.0
20260510120925 13 250 0.0 0.0 0.00 0.00 0.00 56 1019.9
20260510120422 13 250 0.0 0.0 0.00 0.00 0.00 58 1019.9
20260510115917 13 250 0.0 0.0 0.00 0.00 0.00 57 1019.5
20260510115414 13 250 0.0 0.0 0.00 0.00 0.00 59 1019.4
20260510114910 13 250 0.0 0.0 0.00 0.00 0.00 58 1019.1
20260510114408 13 250 0.0 1.6 0.00 0.00 0.00 58 1019.0
20260510113903 13 250 0.0 0.0 0.00 0.00 0.00 58 1019.3
20260510113359 13 250 0.0 0.0 0.00 0.00 0.00 57 1019.3
20260510112856 13 250 0.0 0.0 0.00 0.00 0.00 55 1019.1
20260510112353 13 250 0.0 0.0 0.00 0.00 0.00 56 1019.1
20260510111849 13 250 0.0 0.0 0.00 0.00 0.00 56 1019.2
20260510111345 13 250 0.0 0.0 0.00 0.00 0.00 56 1019.2
20260510110840 13 250 0.0 0.0 0.00 0.00 0.00 56 1019.1
20260510110338 13 250 0.0 1.6 0.00 0.00 0.00 56 1019.1
20260510105834 14 250 0.0 0.0 0.00 0.00 0.00 57 1019.1
20260510105333 14 250 0.0 1.6 0.00 0.00 0.00 57 1018.5
20260510104830 14 250 0.0 0.0 0.00 0.00 0.00 58 1018.6
20260510104327 14 250 0.0 0.0 0.00 0.00 0.00 58 1018.5
20260510103823 14 250 0.0 0.0 0.00 0.00 0.00 60 1018.7
20260510103320 14 250 0.0 0.0 0.00 0.00 0.00 61 1018.6
20260510102815 14 250 0.0 0.0 0.00 0.00 0.00 61 1018.3
20260510102312 14 250 0.0 0.0 0.00 0.00 0.00 63 1018.1
20260510101809 14 250 3.2 3.2 0.00 0.00 0.00 63 1018.0
20260510101307 15 250 0.0 0.0 0.00 0.00 0.00 63 1017.9
20260510100803 15 250 0.0 0.0 0.00 0.00 0.00 61 1017.9
20260510100301 15 250 0.0 0.0 0.00 0.00 0.00 59 1017.9
20260510095756 15 250 0.0 1.6 0.00 0.00 0.00 58 1018.0
20260510095252 15 250 3.2 3.2 0.00 0.00 0.00 59 1017.6
20260510094751 15 250 4.8 4.8 0.00 0.00 0.00 61 1017.8
20260510094246 15 250 1.6 1.6 0.00 0.00 0.00 63 1017.6
20260510093742 15 250 1.6 3.2 0.00 0.00 0.00 66 1017.3
20260510093239 15 250 0.0 0.0 0.00 0.00 0.00 66 1017.3
20260510092735 15 250 0.0 1.6 0.00 0.00 0.00 67 1017.4
20260510092231 15 250 0.0 0.0 0.00 0.00 0.00 68 1017.3
20260510091727 15 250 1.6 4.8 0.00 0.00 0.00 68 1017.3
20260510091224 15 250 0.0 0.0 0.00 0.00 0.00 69 1017.1
20260510090721 15 250 0.0 0.0 0.00 0.00 0.00 70 1017.1
20260510090218 15 250 0.0 0.0 0.00 0.00 0.00 70 1017.0
20260510085713 15 250 1.6 3.2 0.00 0.00 0.00 70 1016.7
20260510085208 15 250 0.0 0.0 0.00 0.00 0.00 69 1016.7
20260510084704 15 250 0.0 0.0 0.00 0.00 0.00 68 1016.8
20260510084201 15 250 0.0 0.0 0.00 0.00 0.00 68 1016.5
20260510083658 16 250 0.0 0.0 0.00 0.00 0.00 67 1016.7
20260510083155 16 250 0.0 0.0 0.00 0.00 0.00 66 1016.5
20260510082651 16 250 0.0 0.0 0.00 0.00 0.00 65 1016.6
20260510082146 16 250 0.0 0.0 0.00 0.00 0.00 66 1016.5
20260510081641 16 250 0.0 0.0 0.00 0.00 0.00 66 1016.5
20260510081138 16 250 0.0 0.0 0.00 0.00 0.00 66 1016.5
20260510080637 16 250 0.0 0.0 0.00 0.00 0.00 66 1016.6
20260510080134 16 250 1.6 1.6 0.00 0.00 0.00 69 1016.5
20260510075631 16 250 0.0 0.0 0.00 0.00 0.00 66 1016.4
20260510075128 16 250 0.0 0.0 0.00 0.00 0.00 68 1016.2
20260510074625 16 250 0.0 0.0 0.00 0.00 0.00 67 1016.3
20260510074120 16 250 0.0 1.6 0.00 0.00 0.00 66 1016.2
20260510073617 16 250 0.0 1.6 0.00 0.00 0.00 65 1016.1
20260510073114 17 250 0.0 0.0 0.00 0.00 0.00 62 1015.9
20260510072610 17 250 0.0 0.0 0.00 0.00 0.00 62 1016.0
20260510072106 17 250 0.0 0.0 0.00 0.00 0.00 61 1015.9
20260510071557 17 250 0.0 0.0 0.00 0.00 0.00 60 1015.7
20260510071055 17 250 0.0 0.0 0.00 0.00 0.00 60 1015.2
20260510070552 17 250 0.0 1.6 0.00 0.00 0.00 60 1015.4
20260510070049 17 250 0.0 0.0 0.00 0.00 0.00 60 1015.7
20260510065545 17 250 0.0 0.0 0.00 0.00 0.00 60 1015.7
20260510065041 17 250 0.0 0.0 0.00 0.00 0.00 60 1015.5
20260510064538 17 250 0.0 0.0 0.00 0.00 0.00 60 1015.5
20260510064034 17 250 0.0 0.0 0.00 0.00 0.00 61 1015.6
20260510063531 17 250 0.0 0.0 0.00 0.00 0.00 63 1015.6
20260510063029 17 250 0.0 0.0 0.00 0.00 0.00 63 1015.6
20260510062524 16 250 0.0 0.0 0.00 0.00 0.00 65 1015.5
20260510062019 17 250 0.0 0.0 0.00 0.00 0.00 68 1015.5
20260510061516 16 250 1.6 1.6 0.00 0.00 0.00 69 1015.5
20260510061013 16 250 0.0 1.6 0.00 0.00 0.00 72 1015.8
20260510060510 16 250 0.0 0.0 0.00 0.00 0.00 77 1015.5
20260510060006 14 250 0.0 0.0 0.00 0.00 0.00 85 1015.5
20260510055502 14 250 0.0 0.0 0.00 0.00 0.00 88 1015.4
20260510055000 14 250 0.0 0.0 0.00 0.00 0.00 88 1015.3
20260510054455 14 250 0.0 0.0 0.00 0.00 0.00 88 1015.3
20260510053950 15 250 0.0 0.0 0.00 0.00 0.00 88 1015.1
20260510053446 15 250 0.0 0.0 0.00 0.00 0.00 88 1015.0
20260510052942 15 250 0.0 0.0 0.00 0.00 0.00 87 1015.0
20260510052438 15 250 0.0 0.0 0.00 0.00 0.00 87 1014.8
20260510051935 15 250 0.0 0.0 0.00 0.00 0.00 86 1014.7
20260510051431 15 250 0.0 0.0 0.00 0.00 0.00 86 1014.7
20260510050927 15 250 0.0 0.0 0.00 0.00 0.00 85 1015.0
20260510050424 15 250 0.0 0.0 0.00 0.00 0.00 85 1014.9
20260510045922 15 250 0.0 0.0 0.00 0.03 0.03 84 1014.8
20260510045419 15 250 0.0 0.0 0.00 0.03 0.03 84 1014.8
20260510044915 15 250 0.0 0.0 0.00 0.03 0.03 84 1014.6
20260510044412 15 250 0.0 0.0 0.00 0.03 0.03 84 1014.6
20260510043909 15 250 0.0 0.0 0.00 0.03 0.03 84 1014.3
20260510043405 16 250 0.0 0.0 0.00 0.03 0.03 86 1014.3
20260510042903 16 250 0.0 0.0 0.00 0.03 0.03 86 1014.6
20260510042359 16 250 0.0 0.0 0.00 0.03 0.03 85 1014.5
20260510041855 16 250 0.0 0.0 0.00 0.03 0.03 85 1014.7
20260510041352 16 250 0.0 0.0 0.00 0.03 0.03 85 1014.7
20260510040850 16 250 0.0 0.0 0.00 0.03 0.03 84 1014.3
20260510040347 16 250 0.0 0.0 0.00 0.03 0.03 84 1014.4
20260510035842 16 250 0.0 0.0 0.00 0.03 0.03 83 1014.2
20260510035338 16 250 0.0 0.0 0.00 0.03 0.03 83 1014.1
20260510034833 16 250 0.0 0.0 0.00 0.03 0.03 82 1014.1
20260510034332 16 250 0.0 0.0 0.00 0.03 0.03 82 1014.1
20260510033828 16 250 0.0 0.0 0.00 0.03 0.03 81 1014.0
20260510033325 16 250 0.0 0.0 0.00 0.03 0.03 80 1014.0
20260510032821 16 250 0.0 0.0 0.00 0.03 0.03 78 1014.1
20260510032318 16 250 0.0 0.0 0.00 0.03 0.03 77 1014.1
20260510031813 16 250 0.0 0.0 0.00 0.03 0.03 76 1014.1
20260510031309 17 250 0.0 0.0 0.00 0.03 0.03 76 1014.1
20260510030803 17 250 0.0 0.0 0.00 0.03 0.03 74 1013.6
20260510030300 17 250 0.0 0.0 0.00 0.03 0.03 71 1013.8
20260510025758 18 250 0.0 0.0 0.00 0.03 0.03 68 1013.4
20260510025255 18 250 0.0 0.0 0.00 0.03 0.03 66 1013.1
20260510024751 18 250 0.0 0.0 0.00 0.03 0.03 66 1012.7
20260510024248 18 250 0.0 0.0 0.00 0.03 0.03 67 1012.8
20260510023744 18 250 0.0 0.0 0.00 0.03 0.03 66 1012.6
20260510023241 18 250 0.0 0.0 0.00 0.03 0.03 64 1012.7
20260510022737 19 250 0.0 0.0 0.00 0.03 0.03 62 1012.6
20260510022238 20 250 0.0 0.0 0.00 0.03 0.03 60 1012.2
20260510021732 20 250 0.0 0.0 0.00 0.03 0.03 57 1012.1
20260510021230 20 250 0.0 0.0 0.00 0.03 0.03 57 1012.1
20260510020731 21 250 0.0 0.0 0.00 0.03 0.03 55 1012.0
20260510020226 21 250 0.0 0.0 0.00 0.03 0.03 54 1011.6
20260510015722 21 250 0.0 0.0 0.00 0.03 0.03 52 1011.8
20260510015218 21 250 0.0 0.0 0.00 0.03 0.03 52 1011.7
20260510014713 22 250 0.0 0.0 0.00 0.03 0.03 53 1011.6
20260510014211 22 250 1.6 1.6 0.00 0.03 0.03 51 1011.3
20260510013712 22 250 0.0 0.0 0.00 0.03 0.03 52 1011.2
20260510013208 22 250 0.0 0.0 0.00 0.03 0.03 55 1011.0
20260510012702 22 250 0.0 0.0 0.00 0.03 0.03 56 1010.9
20260510012157 22 250 6.4 9.7 0.00 0.03 0.03 56 1011.1
20260510011652 20 250 1.6 3.2 0.00 0.03 0.03 67 1010.8
20260510011148 20 250 3.2 3.2 0.00 0.03 0.03 80 1010.5
20260510010644 20 250 0.0 0.0 0.00 0.03 0.03 80 1010.5
20260510010142 20 250 0.0 0.0 0.00 0.03 0.03 79 1010.4
20260510005637 21 250 0.0 0.0 0.00 0.03 0.03 79 1009.8
20260510005134 21 250 0.0 0.0 0.00 0.03 0.03 77 1010.2
20260510004633 22 250 0.0 0.0 0.00 0.03 0.03 75 1010.0
20260510004131 23 250 0.0 0.0 0.00 0.03 0.03 75 1009.9
20260510003628 23 250 0.0 0.0 0.00 0.03 0.03 74 1009.9
20260510003123 23 250 0.0 0.0 0.00 0.03 0.03 76 1010.0
20260510002618 24 250 0.0 0.0 0.00 0.03 0.03 75 1009.7
20260510002115 25 250 0.0 0.0 0.00 0.03 0.03 76 1009.8
20260510001612 24 250 0.0 0.0 0.00 0.03 0.03 77 1009.7
20260510001111 23 250 0.0 0.0 0.00 0.03 0.03 76 1009.8
20260510000611 23 250 0.0 0.0 0.00 0.03 0.03 77 1010.0
20260510000108 25 250 0.0 0.0 0.00 0.03 0.03 76 1009.7
20260509235604 25 250 0.0 0.0 0.00 0.03 0.03 73 1009.7
20260509235102 25 250 0.0 0.0 0.00 0.03 0.03 70 1009.7
20260509234557 25 250 0.0 0.0 0.00 0.03 0.03 66 1009.7
20260509234055 25 250 0.0 0.0 0.00 0.03 0.03 69 1009.5
20260509233553 26 250 0.0 0.0 0.00 0.03 0.03 66 1009.6
20260509233050 26 250 0.0 0.0 0.00 0.03 0.03 61 1009.6
20260509232546 26 250 0.0 0.0 0.00 0.03 0.03 54 1009.9
20260509232043 26 250 0.0 0.0 0.00 0.03 0.03 47 1009.7
20260509231539 26 250 0.0 0.0 0.00 0.03 0.03 44 1009.8
20260509231038 26 250 0.0 0.0 0.00 0.03 0.03 43 1009.9
20260509230534 27 250 0.0 0.0 0.00 0.03 0.03 42 1009.8
20260509230031 27 250 1.6 3.2 0.00 0.03 0.03 37 1009.8
20260509225526 28 250 1.6 1.6 0.00 0.03 0.03 36 1009.8
20260509225022 28 250 0.0 0.0 0.00 0.03 0.03 42 1009.5
20260509224518 27 250 0.0 0.0 0.00 0.03 0.03 44 1009.6
20260509224015 27 250 0.0 0.0 0.00 0.03 0.03 42 1009.5
20260509223512 26 250 0.0 0.0 0.00 0.03 0.03 42 1009.5
20260509223010 27 250 0.0 0.0 0.00 0.03 0.03 42 1009.6
20260509222505 28 250 0.0 0.0 0.00 0.03 0.03 42 1009.6
20260509222001 28 248 1.6 1.6 0.00 0.03 0.03 40 1009.3
20260509221457 27 250 1.6 1.6 0.00 0.03 0.03 40 1009.3
20260509220953 27 250 0.0 0.0 0.00 0.03 0.03 44 1009.8
20260509220449 27 250 0.0 0.0 0.00 0.03 0.03 43 1009.6
20260509215945 27 250 1.6 3.2 0.00 0.03 0.03 40 1009.5
20260509215441 27 250 4.8 4.8 0.00 0.03 0.03 35 1009.6
20260509214939 27 250 4.8 8.0 0.00 0.03 0.03 34 1009.6
20260509214436 27 248 4.8 4.8 0.00 0.03 0.03 39 1009.7
20260509213932 27 245 0.0 0.0 0.00 0.03 0.03 40 1009.7
20260509213428 27 242 0.0 1.6 0.00 0.03 0.03 37 1009.6
20260509212926 27 236 4.8 8.0 0.00 0.03 0.03 37 1009.6
20260509212423 27 226 3.2 4.8 0.00 0.03 0.03 36 1009.6
20260509211919 28 216 1.6 3.2 0.00 0.03 0.03 35 1009.5
20260509211415 28 202 1.6 3.2 0.00 0.03 0.03 32 1009.6
20260509210912 28 194 3.2 4.8 0.00 0.03 0.03 38 1009.7
20260509210409 28 190 6.4 8.0 0.00 0.03 0.03 35 1009.7
20260509205904 28 174 6.4 8.0 0.00 0.03 0.03 37 1009.7
20260509205404 28 171 1.6 3.2 0.00 0.03 0.03 38 1009.7
20260509204900 28 165 3.2 3.2 0.00 0.03 0.03 39 1009.6